User: anonymous   Login
Location: Fort Frances
(48.6170°N, 93.4170°W)
Time: 04:49:03
(UTC-05:00)
Language:

Iridium 53 - Orbit

View from above orbital plane
View from above orbital plane
View from above satellite
View from above satellite

Ground track
Ground track

The orbit data is extracted from the following two-line orbital elements,

1 25173U 98010E   14303.29741354  .00000685  00000-0  23741-3 0   105
2 25173 086.4002 031.9920 0002284 108.9874 307.1049 14.34219832874041
Epoch (UTC): 30 October 2014 07:08:16
Eccentricity: 0.0002284
inclination: 86.4002°
perigee height: 776 km
apogee height: 779 km
right ascension of ascending node: 31.9920°
argument of perigee: 108.9874°
revolutions per day: 14.34219832
mean anomaly at epoch: 307.1049°
orbit number at epoch: 87404

The dashed part of the orbit path shows where the satellite is in the earth's shadow,  

DLR